Regional Weather Roundup
Issued by NWS Charleston, WV

Home | Current Version | Previous Version | Text Only | Print | Product List | Glossary Off
Versions: 1 2 3 4 5 6 7 8 9 10 11 12 13 14 15 16 17 18 19 20 21 22 23 24 25 26 27

000
ASUS41 KRLX 190110
RWRRLX
West Virginia Regional Weather Roundup
National Weather Service Charleston WV
900 PM EDT FRI APR 18 2014

Note: "fair" indicates few or no clouds below 12,000 feet with no
significant weather and/or obstructions to visibility.

WVZ003-190200-
Northern Panhandle of West Virginia

CITY           SKY/WX    TMP DP  RH WIND       PRES   REMARKS
WHEELING       MOCLDY    61  33  35 N5        30.20S
$$

WVZ009-190200-
Northwest West Virginia

CITY           SKY/WX    TMP DP  RH WIND       PRES   REMARKS
PARKERSBURG    CLOUDY    64  32  30 N3        30.23R
$$

WVZ006-190200-
Western West Virginia

CITY           SKY/WX    TMP DP  RH WIND       PRES   REMARKS
HUNTINGTON     CLOUDY    66  33  29 CALM      30.19R
$$

WVZ015-190200-
West Central West Virginia

CITY           SKY/WX    TMP DP  RH WIND       PRES   REMARKS
CHARLESTON     CLOUDY    65  37  35 CALM      30.19R
$$

WVZ031-190200-
North Central West Virginia

CITY           SKY/WX    TMP DP  RH WIND       PRES   REMARKS
CLARKSBURG     CLOUDY    62  30  29 N5        30.20R
MORGANTOWN     CLOUDY    63  30  28 CALM      30.21S
$$

WVZ035-042-045-190200-
South Central West Virginia

CITY           SKY/WX    TMP DP  RH WIND       PRES   REMARKS
BECKLEY        CLOUDY    56  32  40 S6        30.23S
BLUEFIELD      CLOUDY    56  31  38 SE5       30.25S
LEWISBURG      CLOUDY    53  30  41 CALM      30.24R
$$

WVZ047-190200-
Northern Mountains of West Virginia

CITY           SKY/WX    TMP DP  RH WIND       PRES   REMARKS
ELKINS         CLOUDY    54  33  45 CALM      30.22R
$$

WVZ052-190200-
Eastern Panhandle of West Virginia

CITY           SKY/WX    TMP DP  RH WIND       PRES   REMARKS
MARTINSBURG    CLOUDY    50  35  56 CALM      30.28R
PETERSBURG     CLOUDY    62  43  50 E5        30.24R
$$



USA.gov is the U.S. government's official web portal to all federal, state and local government web resources and services.